Crystal River, FL

10:53 AM EST on December 13, 2019 (GMT -0500)
Crystal River

Weather History for KCGC - November, 2019

Change the Weather History Date:

Tuesday, November 19, 2019

  Actual Average (WUND) Record (WUND)
Temperature  
Mean Temperature 55 °F -  
Max Temperature 66 °F - - (-1)
Min Temperature 44 °F - - (-1)
Degree Days  
Heating Degree Days 10    
Growing Degree Days 5 (Base 50)    
Moisture  
Dew Point 45 °F    
Average Humidity 79    
Maximum Humidity 100    
Minimum Humidity 45    
Precipitation  
Precipitation 0.00 in - - ()
Sea Level Pressure  
Sea Level Pressure 29.97 in    
Wind  
Wind Speed 2 mph (WNW)    
Max Wind Speed 13 mph    
Max Gust Speed 20 mph    
Visibility 9 miles    
Events      
Averages and records for this station are not official NWS values.
T = Trace of Precipitation, MM = Missing Value Source: NWS Daily Summary

Daily Weather History Graph

Daily Weather History Graph

Search for Another Location

Airport or City:

Astronomy

Nov. 19, 2019 Rise Set
Actual Time 6:56 AM EST 5:34 PM EST
Civil Twilight 6:31 AM EST 5:59 PM EST
Nautical Twilight 6:02 AM EST 6:28 PM EST
Astronomical Twilight 5:34 AM EST 6:56 PM EST
Moon No Moon Rise 1:09 PM EST (11/19)
Length of Visible Light 11h 28m
Length of Day
10h 38m
Waning Gibbous, 52% of the Moon is Illuminated
Nov 19
Waning Gibbous
Nov 19
Last Quarter
Nov 26
New
Dec 4
First Quarter
Dec 12
Full

Hourly Weather History & Observations

Time (EST) Temp. Dew Point Humidity Pressure Visibility Wind Dir Wind Speed Gust Speed Precip Events Conditions
12:35 AM 50.0 °F 50.0 °F 100% 29.88 in 10.0 mi Calm Calm - N/A   Mostly Cloudy
12:55 AM 50.0 °F 48.2 °F 94% 29.88 in 5.0 mi Calm Calm - N/A   Clear
1:15 AM 48.2 °F 46.4 °F 93% 29.88 in 5.0 mi Calm Calm - N/A   Clear
1:35 AM 48.2 °F 46.4 °F 93% 29.88 in 5.0 mi Calm Calm - N/A   Clear
1:55 AM 46.4 °F 46.4 °F 100% 29.88 in 7.0 mi Calm Calm - N/A   Clear
2:15 AM 46.4 °F 46.4 °F 100% 29.88 in 4.0 mi Calm Calm - N/A   Clear
2:55 AM 46.4 °F 46.4 °F 100% 29.88 in 10.0 mi Calm Calm - N/A   Mostly Cloudy
3:15 AM 46.4 °F 46.4 °F 100% 29.88 in 5.0 mi Calm Calm - N/A   Scattered Clouds
3:35 AM 46.4 °F 46.4 °F 100% 29.88 in 7.0 mi Calm Calm - N/A   Scattered Clouds
3:55 AM 46.4 °F 44.6 °F 93% 29.88 in 5.0 mi Calm Calm - N/A   Scattered Clouds
4:55 AM 44.6 °F 44.6 °F 100% 29.89 in 7.0 mi Calm Calm - N/A   Clear
5:15 AM 44.6 °F 44.6 °F 100% 29.90 in 10.0 mi Calm Calm - N/A   Clear
5:35 AM 44.6 °F 44.6 °F 100% 29.91 in 10.0 mi Calm Calm - N/A   Clear
5:55 AM 44.6 °F 44.6 °F 100% 29.91 in 7.0 mi Calm Calm - N/A   Clear
6:15 AM 44.6 °F 44.6 °F 100% 29.93 in 10.0 mi Calm Calm - N/A   Clear
6:55 AM 44.6 °F 44.6 °F 100% 29.95 in 10.0 mi Calm Calm - N/A   Clear
7:15 AM 44.6 °F 44.6 °F 100% 29.96 in 10.0 mi Calm Calm - N/A   Clear
7:35 AM 46.4 °F 44.6 °F 93% 29.96 in 10.0 mi Calm Calm - N/A   Clear
7:55 AM 48.2 °F 46.4 °F 93% 29.96 in 10.0 mi Calm Calm - N/A   Clear
8:15 AM 50.0 °F 46.4 °F 87% 29.96 in 10.0 mi Calm Calm - N/A   Clear
8:35 AM 53.6 °F 46.4 °F 77% 29.97 in 10.0 mi Calm Calm - N/A   Clear
8:55 AM 55.4 °F 46.4 °F 72% 29.98 in 10.0 mi Calm Calm - N/A   Clear
9:15 AM 55.4 °F 46.4 °F 72% 29.98 in 10.0 mi Calm Calm - N/A   Clear
9:35 AM 59.0 °F 44.6 °F 59% 30.00 in 10.0 mi Calm Calm - N/A   Clear
10:15 AM 60.8 °F 44.6 °F 55% 30.01 in 10.0 mi WNW 5.8 mph - N/A   Clear
10:35 AM 62.6 °F 44.6 °F 52% 30.01 in 10.0 mi NW 6.9 mph - N/A   Clear
10:55 AM 64.4 °F 42.8 °F 45% 30.01 in 10.0 mi WNW 8.1 mph - N/A   Clear
11:35 AM 64.4 °F 42.8 °F 45% 30.01 in 10.0 mi WNW 12.7 mph 18.4 mph N/A   Clear
11:55 AM 64.4 °F 44.6 °F 49% 30.01 in 10.0 mi WNW 6.9 mph 17.3 mph N/A   Clear
12:15 PM 64.4 °F 44.6 °F 49% 29.99 in 10.0 mi West 12.7 mph 18.4 mph N/A   Clear
12:35 PM 64.4 °F 44.6 °F 49% 29.98 in 10.0 mi WNW 9.2 mph 17.3 mph N/A   Clear
1:15 PM 66.2 °F 44.6 °F 46% 29.96 in 10.0 mi WNW 9.2 mph 19.6 mph N/A   Clear
1:35 PM 64.4 °F 42.8 °F 45% 29.96 in 10.0 mi WNW 6.9 mph 17.3 mph N/A   Clear
1:55 PM 64.4 °F 42.8 °F 45% 29.96 in 10.0 mi West 10.4 mph 17.3 mph N/A   Clear
2:15 PM 64.4 °F 42.8 °F 45% 29.96 in 10.0 mi West 11.5 mph 17.3 mph N/A   Clear
2:35 PM 64.4 °F 42.8 °F 45% 29.96 in 10.0 mi West 10.4 mph 18.4 mph N/A   Clear
2:55 PM 64.4 °F 42.8 °F 45% 29.96 in 10.0 mi WNW 8.1 mph - N/A   Clear
3:15 PM 64.4 °F 44.6 °F 49% 29.96 in 10.0 mi West 9.2 mph 16.1 mph N/A   Clear
3:35 PM 64.4 °F 44.6 °F 49% 29.97 in 10.0 mi West 6.9 mph 16.1 mph N/A   Clear
3:55 PM 62.6 °F 44.6 °F 52% 29.97 in 10.0 mi West 8.1 mph - N/A   Clear
4:15 PM 62.6 °F 44.6 °F 52% 29.98 in 10.0 mi West 6.9 mph - N/A   Clear
4:35 PM 62.6 °F 44.6 °F 52% 29.98 in 10.0 mi West 5.8 mph - N/A   Clear
4:55 PM 60.8 °F 46.4 °F 59% 29.98 in 10.0 mi West 8.1 mph - N/A   Clear
5:35 PM 59.0 °F 48.2 °F 67% 30.00 in 10.0 mi Calm Calm - N/A   Clear
5:55 PM 55.4 °F 50.0 °F 82% 30.01 in 10.0 mi Calm Calm - N/A   Clear
6:15 PM 53.6 °F 50.0 °F 88% 30.01 in 10.0 mi Calm Calm - N/A   Clear
6:35 PM 53.6 °F 48.2 °F 82% 30.02 in 10.0 mi Calm Calm - N/A   Clear
6:55 PM 51.8 °F 48.2 °F 88% 30.02 in 10.0 mi Calm Calm - N/A   Clear
7:15 PM 51.8 °F 48.2 °F 88% 30.03 in 10.0 mi Calm Calm - N/A   Clear
7:35 PM 50.0 °F 48.2 °F 94% 30.03 in 10.0 mi Calm Calm - N/A   Clear
7:55 PM 50.0 °F 46.4 °F 87% 30.03 in 10.0 mi Calm Calm - N/A   Clear
8:15 PM 50.0 °F 46.4 °F 87% 30.04 in 10.0 mi Calm Calm - N/A   Clear
8:35 PM 48.2 °F 46.4 °F 93% 30.04 in 10.0 mi Calm Calm - N/A   Clear
8:55 PM 46.4 °F 46.4 °F 100% 30.05 in 10.0 mi Calm Calm - N/A   Clear
9:15 PM 46.4 °F 46.4 °F 100% 30.05 in 10.0 mi Calm Calm - N/A   Clear
9:35 PM 46.4 °F 44.6 °F 93% 30.06 in 10.0 mi Calm Calm - N/A   Clear
9:55 PM 44.6 °F 44.6 °F 100% 30.05 in 10.0 mi Calm Calm - N/A   Clear
10:15 PM 44.6 °F 44.6 °F 100% 30.06 in 10.0 mi Calm Calm - N/A   Clear
10:35 PM 44.6 °F 44.6 °F 100% 30.06 in 7.0 mi Calm Calm - N/A   Clear
10:55 PM 44.6 °F 42.8 °F 93% 30.05 in 7.0 mi Calm Calm - N/A   Clear
11:15 PM 44.6 °F 42.8 °F 93% 30.05 in 10.0 mi Calm Calm - N/A   Clear
11:55 PM 44.6 °F 42.8 °F 93% 30.05 in 7.0 mi Calm Calm - N/A   Clear